[[{"header":{"parameterUnit":"m.s-1","parameterCategory":1,"la1":30.2991,"la2":30.254,"lo1":-89.0895,"lo2":-89.0444,"dy":0.0017,"dx":0.0017,"nx":28,"ny":28,"refTime":"2025-05-20T21:00:00:Z","depth":0,"parameterNumber":2,"parameterNumberName":"U-component_of_WINDS"},"data":[0,0,0,0,0,0,0,0,0,0,0,0,0,0,0,0,0,0,0,0,0,0,0,0,0,0,0,0,0,0,0,0,0,0,0,0,0,0,0,0,0,0,0,0,0,0,0,0,0,0,0,0,0,0,0,0,0,0,-2.4109,-2.411,0,-2.4172,-2.4173,-2.4174,-2.4086,-2.4083,-2.408,-2.4077,-2.4142,-2.4147,-2.4151,0,0,0,0,0,0,0,0,0,0,0,0,0,-2.3916,-2.392,-2.4109,-2.411,-2.4111,-2.4172,-2.4173,-2.4174,-2.4087,-2.4083,-2.4079,-2.4075,-2.4141,-2.4146,-2.4152,0,0,0,0,0,0,0,0,0,0,0,0,0,-2.3992,-2.3922,-2.4109,-2.4075,-2.4072,-2.4172,-2.4173,-2.4174,-2.4087,-2.4083,-2.4078,-2.4074,-2.4139,-2.4146,-2.4152,-2.4289,0,0,-2.4174,-2.4177,0,0,0,0,0,0,0,0,-2.3988,-2.3999,-2.4079,-2.4077,-2.4075,-2.4116,-2.4129,-2.4213,-2.4088,-2.4082,-2.4077,-2.4071,-2.4137,-2.4144,-2.4166,-2.4292,-2.4295,-2.4174,-2.4179,-2.4182,-2.4184,0,0,0,0,0,0,0,-2.3983,-2.3996,-2.4134,-2.408,-2.4078,-2.4057,-2.4063,-2.4144,-2.4135,-2.4082,-2.4076,-2.4084,-2.4135,-2.416,-2.4167,-2.4296,-2.4174,-2.418,-2.4185,-2.4187,-2.454,-2.4545,0,0,0,0,0,0,-2.3981,-2.3992,-2.4132,-2.4136,-2.4019,-2.4064,-2.407,-2.4108,-2.4134,-2.4133,-2.4088,-2.408,-2.415,-2.4159,-2.4169,-2.4332,-2.4181,-2.4188,-2.4192,-2.4535,-2.4541,-2.4547,0,0,0,0,0,0,-2.3977,-2.3995,-2.413,-2.4063,-2.4078,-2.4073,-2.4115,-2.4111,-2.4136,-2.4139,-2.4137,-2.4115,-2.4147,-2.4159,-2.426,-2.4333,-2.4191,-2.4198,-2.4529,-2.4537,-2.4544,-2.4659,0,0,0,0,0,0,-2.3972,-2.3994,-2.4045,-2.4064,-2.4082,-2.4219,-2.412,-2.4116,-2.4148,-2.4138,-2.4163,-2.4163,-2.4144,-2.4251,-2.4267,-2.434,-2.4203,-2.4522,-2.4532,-2.4542,-2.4648,-2.4669,-2.4687,0,0,0,0,0,-2.3966,-2.4074,-2.4048,-2.4065,-2.4146,-2.4224,-2.4234,-2.421,-2.4154,-2.4206,-2.4208,-2.4162,-2.4323,-2.4262,-2.428,-2.4356,-2.4518,-2.453,-2.4541,-2.464,-2.4665,-2.4687,0,0,0,0,0,0,-2.4062,-2.4076,-2.4047,-2.4164,-2.4194,-2.4209,-2.4273,-2.4238,-2.4283,-2.4272,-2.4241,-2.4247,-2.4356,-2.4366,-2.4298,-2.4491,-2.4411,-2.4427,-2.448,-2.4504,-2.4524,-2.4518,-2.4209,0,0,0,0,0,-2.4098,-2.4159,-2.4168,-2.4271,-2.4287,-2.4278,-2.4311,-2.4291,-2.432,-2.4331,-2.4341,-2.4372,-2.4429,-2.4467,-2.452,-2.465,-2.4655,-2.4712,-2.4731,-2.4747,-2.4761,-2.4832,-2.4858,-2.4585,-2.4585,-2.4585,0,0,-2.417,-2.4186,-2.4226,-2.4291,-2.4311,-2.4377,-2.4289,-2.4361,-2.441,-2.4342,-2.4438,-2.4448,-2.448,-2.4596,-2.4648,-2.4608,-2.4838,-2.4762,-2.4775,-2.478,-2.4847,-2.4873,-2.4896,-2.4593,-2.4592,-2.459,0,0,-2.4336,-2.4354,-2.4443,-2.4465,-2.4497,-2.4491,-2.4513,-2.4534,-2.4537,-2.4634,-2.4585,-2.4643,-2.4743,-2.4768,-2.4794,-2.4975,-2.4934,-2.4993,-2.5094,-2.5164,-2.5186,-2.5205,-2.527,-2.5293,-2.5007,-2.5007,-2.5007,0,-2.4423,-2.4519,-2.4493,-2.4569,-2.46,-2.4543,-2.4634,-2.4657,-2.4705,-2.4728,-2.4683,-2.4809,-2.4826,-2.4949,-2.4993,-2.5016,-2.5041,-2.4989,-2.5185,-2.5204,-2.5221,-2.5282,-2.5307,-2.5014,-2.5013,-2.5013,-2.5012,0,-2.4624,-2.4692,-2.476,-2.4809,-2.4847,-2.4931,-2.4918,-2.4961,-2.4938,-2.4938,-2.5038,-2.5058,-2.5114,-2.5142,-2.512,-2.5263,-2.5237,-2.519,-2.5108,-2.5254,-2.5312,-2.5335,-2.5024,-2.5022,-2.502,-2.5018,0,0,-2.4849,-2.4885,-2.4911,-2.4933,-2.4966,-2.5018,-2.5101,-2.5157,-2.5194,-2.5231,-2.5299,-2.5387,-2.5343,-2.5373,-2.5354,-2.5416,-2.5559,-2.536,-2.536,-2.5396,-2.5719,-2.5754,-2.5782,-2.5533,-2.5538,-2.5541,-2.5716,0,-2.5016,-2.5157,-2.5137,-2.5273,-2.5337,-2.5286,-2.5358,-2.5387,-2.5389,-2.5444,-2.5447,-2.551,-2.5447,-2.5465,-2.5524,-2.5529,-2.5623,-2.5516,-2.5597,-2.56,-2.5589,-2.5811,-2.5848,-2.6012,-2.5738,-2.5742,-2.5745,0,-2.5227,-2.5272,-2.5415,-2.5441,-2.5467,-2.5531,-2.5583,-2.5636,-2.5669,-2.5666,-2.5702,-2.5673,-2.5757,-2.5676,-2.5792,-2.572,-2.5752,-2.576,-2.5766,-2.5771,-2.568,-2.5823,-2.6064,-2.6088,-2.578,-2.5777,-2.5775,0,-2.5377,-2.5474,-2.5572,-2.5593,-2.5625,-2.5673,-2.5689,-2.5717,-2.5753,-2.5799,-2.5822,-2.5877,-2.5907,-2.5951,-2.5938,-2.588,-2.6057,-2.5975,-2.6058,-2.6059,-2.6096,-2.6093,-2.6345,-2.6119,-2.6119,-2.6118,-2.6118,0,-2.5564,-2.5653,-2.564,-2.57,-2.58,-2.5778,-2.5878,-2.5888,-2.5914,-2.5976,-2.5937,-2.5996,-2.5976,-2.6036,-2.6027,-2.6125,-2.6139,-2.614,-2.6136,-2.6142,-2.6142,-2.6162,-2.615,-2.6125,-2.6123,-2.6122,-2.6121,0,-2.5747,-2.5742,-2.5846,-2.587,-2.5878,-2.595,-2.5971,-2.6028,-2.6029,-2.6109,-2.6126,-2.6128,-2.6196,-2.6188,-2.6264,-2.6258,-2.638,-2.6363,-2.6369,-2.6364,-2.6448,-2.644,-2.672,-2.6756,-2.6508,-2.651,-2.6512,0,-2.5865,-2.5933,-2.5965,-2.6004,-2.6024,-2.6087,-2.6124,-2.6107,-2.6147,-2.6192,-2.6245,-2.631,-2.636,-2.6471,-2.6479,-2.6538,-2.6522,-2.6616,-2.653,-2.6535,-2.6523,-2.6518,-2.6525,-2.6632,-2.6635,-2.6637,-2.6639,0,-2.6076,-2.6071,-2.6126,-2.6182,-2.6227,-2.627,-2.6309,-2.6343,-2.633,-2.6378,-2.6447,-2.6487,-2.6566,-2.6631,-2.6687,-2.6704,-2.667,-2.6667,-2.6689,-2.6696,-2.6696,-2.6697,-2.6414,-2.666,-2.6658,-2.6656,-2.6655,-2.6654,-2.623,-2.6288,-2.6321,-2.6384,-2.6412,-2.645,-2.6506,-2.6515,-2.6573,-2.6635,-2.6622,-2.6701,-2.6735,-2.6807,-2.6831,-2.6893,-2.6858,-2.6891,-2.6899,-2.6907,-2.6916,-2.6688,-2.6903,-2.6903,-2.6902,-2.6902,-2.6901,0,-2.6438,-2.6457,-2.6516,-2.6572,-2.6623,-2.6589,-2.6631,-2.6675,-2.6745,-2.678,-2.6831,-2.6912,-2.6976,-2.6991,-2.7053,-2.71,-2.7086,-2.7116,-2.7112,-2.7117,-2.6943,-2.6918,-2.7127,-2.7127,-2.7127,-2.7127,-2.7127,-2.7126,-2.6552,-2.665,-2.665,-2.6762,-2.6781,-2.6857,-2.6885,-2.692,-2.6948,-2.7041,-2.7094,-2.7104,-2.7132,-2.7196,-2.7253,-2.7256,-2.728,-2.7317,-2.7314,-2.7151,-2.7129,-2.7107,-2.7083,-2.7323,-2.7323,-2.7482,-2.7483,-2.7484]},{"header":{"parameterUnit":"m.s-1","parameterCategory":1,"la1":30.2991,"la2":30.254,"lo1":-89.0895,"lo2":-89.0444,"dy":0.0017,"dx":0.0017,"nx":28,"ny":28,"refTime":"2025-05-20T21:00:00:Z","depth":0,"parameterNumber":3,"parameterNumberName":"V-component_of_WINDS"},"data":[0,0,0,0,0,0,0,0,0,0,0,0,0,0,0,0,0,0,0,0,0,0,0,0,0,0,0,0,0,0,0,0,0,0,0,0,0,0,0,0,0,0,0,0,0,0,0,0,0,0,0,0,0,0,0,0,0,0,-0.7922,-0.7922,0,-0.7921,-0.7921,-0.7921,-0.7967,-0.7968,-0.7969,-0.797,-0.7965,-0.7964,-0.7963,0,0,0,0,0,0,0,0,0,0,0,0,0,-0.796,-0.7959,-0.7922,-0.7922,-0.7922,-0.7921,-0.7921,-0.7921,-0.7967,-0.7968,-0.797,-0.7971,-0.7966,-0.7964,-0.7963,0,0,0,0,0,0,0,0,0,0,0,0,0,-0.7949,-0.7958,-0.7922,-0.7945,-0.7947,-0.7921,-0.7921,-0.7921,-0.7966,-0.7968,-0.797,-0.7972,-0.7966,-0.7964,-0.7963,-0.7914,0,0,-0.7957,-0.7956,0,0,0,0,0,0,0,0,-0.795,-0.7948,-0.7942,-0.7943,-0.7946,-0.7946,-0.7933,-0.7919,-0.7966,-0.7959,-0.797,-0.7973,-0.7957,-0.7956,-0.7952,-0.7914,-0.7914,-0.7957,-0.7955,-0.7955,-0.7954,0,0,0,0,0,0,0,-0.7951,-0.7948,-0.7922,-0.7941,-0.7944,-0.7954,-0.7954,-0.793,-0.7948,-0.796,-0.7963,-0.7962,-0.7959,-0.7954,-0.7952,-0.7913,-0.7957,-0.7955,-0.7954,-0.7953,-0.7834,-0.7832,0,0,0,0,0,0,-0.7949,-0.7948,-0.7922,-0.7922,-0.7952,-0.7952,-0.7952,-0.7944,-0.7948,-0.795,-0.7961,-0.7964,-0.7956,-0.7954,-0.7952,-0.7894,-0.7955,-0.7953,-0.7952,-0.7836,-0.7833,-0.7831,0,0,0,0,0,0,-0.7949,-0.7946,-0.7922,-0.7936,-0.7934,-0.7949,-0.7939,-0.7943,-0.7938,-0.7949,-0.7952,-0.7953,-0.7957,-0.7955,-0.7923,-0.7894,-0.7952,-0.795,-0.7838,-0.7835,-0.7832,-0.7778,0,0,0,0,0,0,-0.795,-0.7946,-0.7928,-0.7935,-0.7933,-0.7894,-0.7938,-0.7942,-0.7935,-0.794,-0.7942,-0.7944,-0.7959,-0.7926,-0.7921,-0.7893,-0.7949,-0.7841,-0.7837,-0.7833,-0.7782,-0.7773,-0.7766,0,0,0,0,0,-0.7951,-0.7913,-0.7927,-0.7924,-0.7912,-0.7892,-0.789,-0.7909,-0.7933,-0.7914,-0.7921,-0.7944,-0.7899,-0.7922,-0.7917,-0.7888,-0.7842,-0.7838,-0.7833,-0.7786,-0.7775,-0.7766,0,0,0,0,0,0,-0.79,-0.7914,-0.793,-0.7893,-0.7891,-0.79,-0.7877,-0.7897,-0.7887,-0.7892,-0.7914,-0.7914,-0.7879,-0.7881,-0.7906,-0.784,-0.7875,-0.7869,-0.784,-0.783,-0.7822,-0.7821,-0.7947,0,0,0,0,0,-0.7885,-0.787,-0.7882,-0.7847,-0.7846,-0.7862,-0.7854,-0.7869,-0.7867,-0.7866,-0.7871,-0.7867,-0.7852,-0.7841,-0.7828,-0.7783,-0.7783,-0.7761,-0.7753,-0.7746,-0.774,-0.7714,-0.7704,-0.7816,-0.7816,-0.7816,0,0,-0.7853,-0.7858,-0.7847,-0.7837,-0.7838,-0.7819,-0.7861,-0.784,-0.7826,-0.7862,-0.7832,-0.7836,-0.7833,-0.7794,-0.7777,-0.7795,-0.7709,-0.774,-0.7734,-0.7732,-0.7708,-0.7698,-0.7688,-0.7813,-0.7814,-0.7814,0,0,-0.7784,-0.7788,-0.7759,-0.7758,-0.7759,-0.777,-0.7763,-0.7768,-0.7772,-0.7743,-0.777,-0.7753,-0.7727,-0.7724,-0.7718,-0.7649,-0.7668,-0.7644,-0.76,-0.7574,-0.7566,-0.7558,-0.753,-0.7521,-0.7638,-0.7638,-0.7638,0,-0.7743,-0.7718,-0.7741,-0.7718,-0.7712,-0.7746,-0.7716,-0.7714,-0.771,-0.7704,-0.7724,-0.7692,-0.7693,-0.7652,-0.7635,-0.7631,-0.7622,-0.7642,-0.7565,-0.7558,-0.7551,-0.7525,-0.7515,-0.7635,-0.7635,-0.7636,-0.7636,0,-0.7666,-0.7648,-0.7625,-0.7621,-0.7613,-0.7586,-0.7604,-0.7593,-0.7608,-0.7616,-0.7585,-0.7588,-0.7575,-0.7567,-0.7581,-0.7528,-0.7539,-0.7562,-0.7596,-0.7536,-0.7512,-0.7503,-0.763,-0.7632,-0.7632,-0.7633,0,0,-0.7563,-0.7573,-0.7564,-0.7562,-0.7565,-0.7551,-0.7525,-0.7514,-0.7503,-0.7499,-0.7477,-0.7454,-0.7476,-0.747,-0.7484,-0.7463,-0.7404,-0.7488,-0.7488,-0.747,-0.7343,-0.7324,-0.7312,-0.7419,-0.7417,-0.7415,-0.7342,0,-0.7495,-0.7453,-0.7473,-0.7428,-0.7411,-0.7443,-0.7421,-0.7419,-0.7427,-0.7412,-0.742,-0.7402,-0.7433,-0.7429,-0.7409,-0.7415,-0.7378,-0.7421,-0.7395,-0.7394,-0.7393,-0.73,-0.728,-0.7211,-0.7334,-0.7332,-0.7331,0,-0.7409,-0.7402,-0.7356,-0.7361,-0.7355,-0.7334,-0.7325,-0.7311,-0.731,-0.7317,-0.731,-0.733,-0.7303,-0.734,-0.7303,-0.7331,-0.7322,-0.7324,-0.7321,-0.7318,-0.7357,-0.7291,-0.719,-0.7178,-0.7317,-0.7318,-0.7319,0,-0.7335,-0.7315,-0.7284,-0.7282,-0.7288,-0.7273,-0.7274,-0.7275,-0.7267,-0.7259,-0.7253,-0.7242,-0.7234,-0.7224,-0.7239,-0.7265,-0.7199,-0.7237,-0.7202,-0.7201,-0.7185,-0.7185,-0.7077,-0.7183,-0.7183,-0.7183,-0.7183,0,-0.7255,-0.7225,-0.7251,-0.7232,-0.7198,-0.7222,-0.7187,-0.7193,-0.7193,-0.7174,-0.7202,-0.7183,-0.7205,-0.7188,-0.72,-0.7166,-0.7163,-0.7166,-0.7169,-0.7162,-0.7162,-0.7155,-0.7159,-0.7181,-0.7181,-0.7182,-0.7182,0,-0.7166,-0.7183,-0.7151,-0.7161,-0.7162,-0.7137,-0.7144,-0.7125,-0.7135,-0.7111,-0.7106,-0.7121,-0.7102,-0.7117,-0.7099,-0.7107,-0.7061,-0.7072,-0.7062,-0.7064,-0.7027,-0.7029,-0.6909,-0.6893,-0.7011,-0.701,-0.7009,0,-0.7113,-0.709,-0.7097,-0.7087,-0.7088,-0.7071,-0.7063,-0.7085,-0.7075,-0.7072,-0.7053,-0.7038,-0.7026,-0.6994,-0.7002,-0.6987,-0.6997,-0.6956,-0.6994,-0.6988,-0.6993,-0.6993,-0.699,-0.6947,-0.6945,-0.6944,-0.6943,0,-0.7015,-0.7024,-0.7012,-0.7003,-0.6993,-0.6986,-0.6981,-0.6971,-0.6994,-0.6981,-0.6963,-0.6954,-0.6936,-0.6918,-0.6907,-0.6907,-0.6927,-0.6932,-0.6922,-0.6913,-0.6907,-0.6907,-0.7037,-0.6933,-0.6934,-0.6935,-0.6936,-0.6936,-0.694,-0.6921,-0.6923,-0.6908,-0.6908,-0.6903,-0.6886,-0.6894,-0.6879,-0.6867,-0.6881,-0.6858,-0.6857,-0.6843,-0.6841,-0.6823,-0.6839,-0.6826,-0.6822,-0.6818,-0.6812,-0.6912,-0.6821,-0.6821,-0.6821,-0.6822,-0.6822,0,-0.6842,-0.6845,-0.6831,-0.6824,-0.6812,-0.6836,-0.6832,-0.6819,-0.68,-0.6797,-0.6785,-0.6764,-0.6747,-0.6754,-0.674,-0.6723,-0.6732,-0.6718,-0.6718,-0.6717,-0.6799,-0.6807,-0.6711,-0.6711,-0.6711,-0.6711,-0.6711,-0.6711,-0.6789,-0.6757,-0.6767,-0.6735,-0.6738,-0.6717,-0.6712,-0.6707,-0.6705,-0.668,-0.6667,-0.6673,-0.6674,-0.6659,-0.6644,-0.6647,-0.6639,-0.6621,-0.6626,-0.6701,-0.6712,-0.6722,-0.673,-0.662,-0.6619,-0.6546,-0.6545,-0.6545]}]]